Location: Cannifist
(18.2333°N, 63.0167°W)
Time: 05:53:13
(UTC+00:00)

Okean 1-7 - Pass Details

Date: 27 February 2020
Orbit: 592 x 618 km, 82.5° (Epoch: 07 April)

Event Time Altitude Azimuth Distance (km) Brightness Sun altitude
Rises 23:39:45 0° 351° (N) 2,861 6.6 -20.3°
Reaches altitude 10° 23:41:58 10° 349° (NNW) 1,960 5.7 -20.8°
Maximum altitude 23:46:16 67° 266° (W) 666 3.3 -21.8°
Drops below altitude 10° 23:50:36 10° 184° (S) 1,967 5.7 -22.9°
Sets 23:52:50 0° 182° (S) 2,873 6.5 -23.4°
